Wind_Speed
21 21 21 21 21 21 21 21 20 19 19 18 18 17 17 16 16 16 15 14 14 13 13 12 11 11 10 9 8 7 7 6 5 4 4 3 3 3 2 1 2 2 3
23 23 23 23 23 23 23 23 23 22 21 20 19 19 18 18 17 16 16 16 15 15 14 14 13 12 11 10 9 8 7 6 5 5 4 4 4 3 3 3 3 3 4
25 25 25 25 25 25 25 25 25 24 23 22 21 20 20 19 19 18 17 17 17 16 16 15 14 14 13 12 11 10 8 7 6 5 5 4 4 4 4 4 4 4 5
26 27 27 28 28 28 28 27 27 26 25 24 23 23 22 21 20 20 19 18 18 18 18 17 16 15 14 13 12 11 10 8 7 6 5 5 5 5 5 5 5 5 6
28 29 29 29 30 30 30 29 29 29 28 27 25 25 24 23 22 21 21 20 20 19 19 18 18 17 16 14 13 12 11 10 8 7 6 6 6 7 6 6 6 7 7
29 30 30 31 32 32 32 31 31 31 31 29 28 26 26 25 24 23 23 22 21 21 20 20 19 18 17 16 15 14 13 11 9 8 8 8 8 8 8 8 8 8 8
30 31 32 32 33 34 34 33 33 34 33 32 30 29 28 27 26 25 25 24 23 22 22 21 20 20 19 18 17 16 14 13 11 10 10 9 9 9 9 9 9 9 9
31 32 32 33 34 34 35 35 35 35 35 34 32 31 30 29 28 27 27 26 25 23 22 22 22 21 20 19 18 17 16 14 13 12 11 11 10 11 11 10 10 11 11
33 32 33 35 35 36 36 36 36 37 37 36 34 33 32 31 30 29 29 28 27 25 23 23 23 22 22 20 19 18 17 16 14 14 13 13 12 12 12 12 12 12 12
34 34 33 36 36 36 37 37 38 38 38 38 37 35 34 32 31 31 31 30 28 27 26 25 24 24 23 22 21 20 19 18 16 15 15 14 14 14 14 14 14 13 14
33 35 34 36 37 37 37 37 38 39 39 39 39 38 36 35 34 33 33 32 30 29 28 27 26 24 24 23 22 21 20 19 18 17 16 16 15 15 15 15 15 15 15
33 34 35 35 37 38 37 37 37 38 39 40 40 39 38 37 35 34 34 34 32 31 29 28 27 26 25 24 23 23 22 21 19 18 18 17 17 17 17 17 16 16 16
32 33 35 36 36 37 37 37 37 38 39 39 39 40 39 38 38 35 35 35 34 33 31 31 29 27 27 26 25 24 23 22 21 20 20 19 18 18 18 18 18 18 18
32 33 34 35 36 37 37 38 38 38 38 38 39 40 40 39 39 37 35 35 35 35 33 32 31 29 28 27 26 25 24 24 22 22 21 21 20 20 20 20 20 19 19
31 32 33 35 36 37 37 38 38 38 39 38 39 40 41 41 40 39 37 36 36 35 34 33 33 32 30 29 28 27 26 25 24 23 23 23 22 22 22 22 21 21 21
29 31 32 34 35 35 37 37 37 37 38 38 40 41 41 42 41 39 38 38 36 36 36 35 34 34 32 31 29 28 28 26 26 25 24 24 24 23 24 24 23 23 24
28 30 32 34 35 35 36 38 38 39 38 38 40 42 42 42 42 41 40 39 38 37 37 36 35 34 35 33 31 30 29 29 27 27 26 26 25 25 25 25 25 26 26
26 28 30 33 34 34 34 37 40 40 40 40 40 42 43 43 43 43 41 41 39 38 38 37 36 36 36 36 34 32 31 30 29 28 27 27 27 27 27 27 27 27 27
24 26 28 30 32 33 33 35 37 39 40 41 40 41 43 43 43 43 42 42 41 39 38 37 38 37 37 37 36 34 33 31 30 29 29 29 29 29 29 28 29 29 28
22 24 26 27 31 33 32 33 34 37 39 41 41 41 43 44 43 42 42 41 40 38 38 37 37 37 37 37 36 35 34 33 32 31 31 31 31 31 30 30 30 31 30
21 23 23 26 29 31 31 32 34 36 38 40 41 40 42 44 43 42 43 41 40 40 40 38 37 38 38 38 37 36 36 35 34 33 34 33 33 33 33 33 34 34 33
19 20 22 24 27 29 30 31 32 34 36 37 40 38 40 42 43 42 42 42 40 40 40 40 38 38 37 38 39 39 38 37 36 36 36 36 36 35 36 35 36 36 37
17 18 19 23 25 26 28 29 30 32 35 37 38 37 37 39 41 42 42 43 43 41 40 40 39 39 38 39 40 41 41 40 39 38 38 38 37 37 37 37 37 38 37
16 17 18 21 23 24 27 29 28 29 31 35 38 38 37 38 40 42 42 42 42 42 41 40 40 40 40 40 40 40 40 40 40 39 39 40 40 39 39 39 40 40 39
17 18 18 20 22 23 25 27 28 28 30 33 36 38 38 39 40 42 44 43 41 40 41 41 41 41 41 41 41 41 41 40 40 41 40 40 40 41 41 41 42 42 41
17 18 19 21 21 22 22 25 27 28 29 31 34 37 38 37 38 40 43 44 42 40 40 41 41 42 42 41 41 41 41 41 41 41 41 41 41 42 42 42 43 43 44
Wind_Direction
247 246 245 243 241 239 237 236 235 235 235 235 236 234 232 232 230 228 226 225 223 220 217 214 211 209 207 204 202 202 202 201 201 207 211 216 226 237 248 269 300 316 326
248 247 246 244 242 240 239 237 236 235 235 235 235 235 233 232 230 228 230 227 223 221 218 216 214 212 210 208 207 208 209 211 214 224 223 231 241 247 256 266 284 303 312
249 247 246 244 242 241 240 238 236 235 235 235 235 235 233 231 231 228 228 225 223 222 220 218 216 215 214 213 213 214 215 217 221 229 230 237 245 251 262 271 284 297 307
248 246 245 244 243 241 240 239 237 235 235 234 235 235 234 232 230 229 227 226 224 222 222 221 218 217 216 216 217 218 219 221 224 232 237 245 253 258 265 274 284 293 302
248 246 245 245 244 242 240 238 237 236 235 235 235 235 235 233 230 230 228 227 226 224 224 224 221 218 218 219 219 220 222 226 230 236 245 250 257 261 265 275 284 290 297
247 246 245 245 244 242 240 237 236 236 235 235 235 235 234 233 232 230 229 227 227 226 226 226 223 220 220 221 222 223 225 230 235 242 250 254 259 264 266 273 280 286 292
248 245 244 244 244 243 241 238 236 236 235 235 235 234 232 232 232 231 229 229 228 228 228 227 225 223 221 222 224 225 228 233 239 245 252 257 260 264 267 272 276 281 287
249 246 244 244 243 242 240 239 237 236 235 235 234 233 232 232 232 232 229 230 230 228 228 227 225 224 224 224 226 226 230 235 240 247 254 258 260 263 268 273 276 280 286
249 247 245 243 242 241 239 238 237 235 234 234 233 232 232 232 232 232 230 229 230 229 228 226 226 226 227 227 228 228 232 237 241 247 254 257 259 264 268 271 275 279 284
250 247 245 244 242 240 239 237 237 236 235 234 233 231 231 231 232 233 231 230 230 229 229 227 226 227 229 229 229 231 235 239 243 248 254 257 260 265 267 270 273 279 283
250 247 244 243 240 239 238 237 237 237 235 234 233 231 230 231 232 233 232 231 230 229 229 228 226 228 230 230 231 233 236 240 244 249 255 259 262 265 267 269 272 277 282
250 247 244 242 240 238 237 237 237 237 236 234 232 231 230 230 232 233 232 232 231 230 230 230 228 229 230 231 232 235 238 242 246 251 255 259 263 265 267 269 272 277 281
250 248 245 241 240 237 236 236 236 236 235 234 232 231 230 229 230 232 233 232 231 231 231 231 231 230 230 232 234 236 240 243 247 251 256 259 262 265 267 269 272 276 280
252 248 245 242 238 235 235 236 237 235 234 233 231 232 230 229 230 231 233 233 232 231 232 232 232 232 232 234 235 237 241 245 249 253 256 259 262 264 266 269 271 275 278
252 248 244 240 236 234 235 235 235 234 233 232 231 231 229 229 229 231 232 233 232 232 232 233 233 233 233 234 236 238 241 245 249 253 256 258 261 263 265 268 271 274 277
252 250 246 243 238 235 234 234 234 234 233 233 232 231 228 228 229 231 231 231 232 232 233 235 234 234 233 234 237 238 240 243 248 252 256 259 261 263 266 268 269 273 275
254 252 250 246 240 236 234 234 234 235 234 232 233 230 229 228 229 231 232 232 231 232 234 235 235 235 236 236 237 239 241 245 249 252 255 259 261 264 267 269 270 272 274
255 254 251 246 241 238 234 234 235 234 233 231 231 230 229 229 229 230 231 231 232 233 234 235 236 236 238 238 238 240 243 247 249 252 255 258 261 264 267 270 271 272 274
259 255 249 245 241 238 237 235 236 235 232 230 230 230 229 228 228 230 230 231 232 233 233 234 237 236 237 239 239 240 243 247 249 252 255 258 261 264 267 270 271 272 273
261 257 250 246 241 238 237 236 236 234 231 230 230 230 227 227 228 229 229 231 231 231 232 235 237 236 237 239 240 242 244 248 251 254 257 259 261 263 266 269 271 271 272
263 258 253 249 243 240 237 237 238 235 233 230 229 229 227 225 226 228 229 231 232 233 235 236 237 237 237 239 242 244 246 249 252 255 257 259 260 262 265 268 270 271 272
265 260 254 249 244 242 239 238 238 234 232 231 229 229 227 224 225 226 228 229 231 234 236 237 237 238 238 240 242 245 247 250 253 257 259 260 261 263 266 268 270 271 273
269 264 258 252 247 245 241 240 238 234 233 233 231 229 226 224 224 226 227 228 230 233 236 236 236 238 240 242 244 247 249 251 254 258 260 261 263 265 267 268 269 270 273
267 265 262 256 249 248 245 241 239 239 236 235 232 230 228 227 226 227 228 229 231 234 236 237 238 241 242 243 245 248 251 253 256 258 260 262 263 265 266 268 270 271 273
266 265 263 260 252 249 247 243 241 241 240 236 233 231 229 229 228 229 229 230 232 235 236 238 239 241 242 243 246 249 252 255 256 258 260 263 265 267 267 269 270 271 272
271 267 265 259 255 252 251 247 243 242 241 238 235 233 229 229 230 232 230 231 233 235 236 238 240 241 242 245 247 250 254 256 258 260 262 264 266 268 270 271 271 271 272
Height
5834 5835 5837 5838 5839 5840 5841 5843 5844 5845 5846 5848 5849 5850 5851 5852 5853 5854 5855 5855 5856 5857 5858 5859 5859 5860 5861 5862 5862 5863 5863 5863 5864 5864 5864 5864 5864 5864 5864 5863 5863 5863 5862
5830 5831 5832 5834 5835 5836 5838 5839 5841 5842 5843 5845 5846 5847 5848 5849 5851 5851 5852 5853 5854 5855 5856 5857 5858 5859 5860 5860 5861 5862 5862 5862 5863 5863 5863 5863 5863 5863 5863 5863 5862 5862 5862
5825 5826 5827 5829 5830 5832 5833 5835 5837 5838 5840 5841 5843 5844 5845 5846 5848 5849 5849 5850 5851 5852 5853 5854 5856 5857 5858 5859 5860 5860 5861 5861 5862 5862 5862 5862 5862 5862 5862 5862 5861 5861 5860
5819 5820 5822 5824 5825 5827 5829 5831 5832 5834 5836 5838 5839 5841 5842 5843 5844 5846 5846 5847 5848 5849 5851 5852 5853 5855 5856 5857 5858 5859 5860 5860 5861 5861 5861 5861 5861 5861 5861 5861 5860 5860 5859
5813 5814 5816 5818 5820 5821 5823 5826 5828 5830 5832 5834 5835 5837 5838 5840 5841 5842 5843 5844 5845 5846 5848 5849 5851 5852 5854 5855 5856 5857 5858 5859 5859 5860 5860 5860 5860 5860 5859 5859 5859 5858 5858
5805 5807 5809 5811 5813 5815 5818 5820 5822 5824 5827 5829 5831 5833 5834 5836 5837 5839 5839 5841 5842 5843 5845 5846 5848 5849 5851 5853 5854 5855 5856 5857 5858 5858 5858 5858 5858 5858 5858 5858 5857 5857 5856
5798 5800 5802 5804 5806 5808 5811 5813 5816 5819 5821 5823 5826 5828 5830 5832 5833 5835 5836 5837 5838 5840 5842 5843 5845 5847 5848 5850 5852 5853 5854 5855 5856 5856 5856 5856 5857 5856 5856 5856 5856 5855 5854
5790 5792 5795 5797 5799 5801 5804 5807 5809 5812 5815 5818 5820 5823 5825 5827 5829 5830 5832 5833 5835 5836 5838 5840 5842 5844 5845 5847 5849 5850 5851 5853 5853 5854 5854 5854 5854 5854 5854 5854 5853 5853 5852
5781 5783 5786 5788 5791 5793 5796 5799 5802 5805 5809 5811 5814 5817 5820 5822 5824 5825 5827 5829 5831 5833 5834 5836 5838 5840 5842 5844 5846 5847 5848 5850 5851 5851 5851 5852 5852 5852 5852 5851 5851 5850 5850
5773 5775 5777 5779 5782 5785 5788 5792 5795 5798 5801 5805 5808 5811 5814 5816 5818 5820 5822 5824 5826 5828 5830 5832 5834 5836 5838 5840 5842 5844 5845 5846 5847 5848 5849 5849 5849 5849 5849 5849 5848 5848 5847
5764 5765 5767 5771 5773 5777 5780 5783 5787 5790 5793 5797 5800 5804 5807 5811 5813 5814 5817 5819 5821 5824 5826 5828 5830 5832 5834 5837 5839 5840 5842 5843 5844 5845 5845 5846 5846 5846 5846 5846 5845 5845 5844
5755 5756 5758 5761 5765 5769 5772 5775 5779 5782 5785 5789 5793 5796 5800 5804 5807 5809 5811 5814 5816 5819 5821 5823 5826 5828 5830 5832 5835 5836 5838 5839 5840 5841 5842 5842 5842 5842 5842 5842 5842 5841 5841
5746 5747 5749 5752 5756 5760 5764 5767 5771 5774 5777 5781 5785 5789 5793 5797 5800 5803 5805 5808 5811 5813 5816 5819 5821 5823 5826 5828 5830 5832 5834 5835 5836 5837 5838 5838 5838 5839 5839 5839 5838 5838 5837
5738 5739 5741 5743 5746 5751 5755 5759 5762 5766 5770 5773 5777 5781 5785 5789 5793 5797 5799 5802 5805 5808 5811 5814 5817 5819 5821 5824 5826 5828 5829 5831 5832 5833 5833 5834 5834 5835 5835 5835 5834 5834 5833
5729 5731 5733 5735 5737 5741 5746 5750 5754 5758 5761 5765 5769 5773 5778 5782 5786 5790 5793 5796 5799 5802 5805 5808 5811 5814 5816 5819 5821 5823 5825 5826 5827 5828 5829 5829 5830 5830 5830 5830 5829 5829 5829
5720 5721 5723 5725 5727 5731 5736 5741 5745 5749 5753 5757 5761 5765 5770 5774 5779 5783 5786 5790 5793 5796 5799 5802 5805 5808 5811 5813 5815 5818 5819 5821 5822 5823 5824 5824 5825 5825 5825 5825 5824 5824 5824
5712 5713 5714 5716 5719 5722 5727 5732 5736 5740 5744 5749 5752 5757 5761 5766 5771 5775 5779 5783 5787 5790 5793 5796 5799 5802 5805 5807 5810 5812 5814 5815 5816 5817 5818 5819 5819 5820 5819 5819 5819 5819 5818
5703 5705 5706 5708 5710 5714 5717 5723 5727 5731 5735 5740 5743 5748 5753 5758 5763 5767 5771 5775 5779 5783 5786 5789 5792 5795 5799 5801 5804 5806 5808 5809 5811 5812 5812 5813 5814 5814 5814 5814 5813 5813 5812
5696 5697 5698 5700 5703 5706 5709 5714 5718 5722 5726 5730 5734 5738 5744 5749 5754 5759 5763 5768 5772 5776 5779 5782 5785 5789 5792 5795 5797 5799 5801 5803 5804 5805 5806 5807 5808 5808 5808 5808 5807 5807 5806
5690 5691 5691 5694 5696 5699 5702 5706 5709 5713 5718 5721 5725 5729 5734 5740 5746 5751 5756 5760 5765 5768 5771 5775 5778 5782 5785 5788 5791 5793 5795 5796 5798 5799 5800 5800 5801 5801 5801 5801 5800 5800 5799
5685 5685 5686 5688 5690 5692 5695 5699 5702 5705 5709 5712 5716 5720 5726 5731 5737 5742 5748 5753 5757 5760 5764 5767 5771 5774 5778 5781 5784 5786 5788 5789 5791 5792 5793 5793 5794 5794 5794 5794 5793 5792 5792
5679 5679 5680 5681 5683 5686 5688 5691 5694 5697 5700 5704 5708 5713 5718 5723 5729 5734 5739 5744 5749 5752 5756 5760 5764 5767 5770 5773 5777 5779 5781 5783 5783 5784 5785 5786 5786 5786 5786 5786 5785 5785 5784
5674 5674 5675 5676 5677 5679 5682 5683 5686 5690 5693 5697 5700 5705 5710 5715 5720 5726 5731 5736 5741 5745 5749 5753 5756 5760 5763 5766 5769 5771 5773 5775 5776 5777 5777 5778 5778 5778 5778 5778 5777 5776 5776
5670 5669 5669 5670 5671 5673 5675 5678 5680 5683 5686 5690 5693 5697 5702 5708 5713 5718 5723 5728 5733 5737 5741 5745 5749 5752 5755 5758 5760 5763 5765 5766 5768 5769 5769 5769 5769 5769 5769 5769 5768 5767 5767
5665 5665 5664 5665 5666 5667 5669 5672 5674 5676 5679 5682 5686 5690 5695 5700 5705 5710 5715 5720 5724 5729 5733 5736 5740 5743 5746 5749 5751 5754 5756 5757 5758 5760 5760 5761 5761 5760 5760 5760 5759 5758 5757
5661 5660 5660 5660 5660 5661 5663 5665 5667 5669 5672 5675 5679 5683 5687 5692 5697 5702 5707 5711 5716 5720 5724 5728 5731 5734 5737 5740 5742 5744 5746 5748 5749 5750 5751 5751 5751 5751 5750 5749 5749 5748 5747